logo meteoveneto

Diretta Meteo Bari-Palese Macchie, Italiasabato 22 giugno ore 08:20

Mappa
Sereno 30 °C Sereno 24 Ore: T.min 22 T.max 32
Ponente Nord Km/h 1.8 Punto di rugiada: 17 °C Umidità: 45% Visibilità: 10 Km
Il sole sorge alle: 05:19 Il sole tramonta alle: 20:30
22 Giugno 2024 08:20 tempo osservato: Sereno Sereno 30 45 1010 vento: Nord N 1.8
22 Giugno 2024 07:50 tempo osservato: Sereno Sereno 28 51 1010 vento: Nord N 3.7
22 Giugno 2024 07:20 tempo osservato: Sereno Sereno 27 50 1010 vento: Nord N 5.5
22 Giugno 2024 06:50 tempo osservato: Sereno Sereno 25 57 1010 vento: Nord N 3.7
22 Giugno 2024 06:20 tempo osservato: Sereno Sereno 24 57 1010 vento: Nord N 3.7
22 Giugno 2024 05:50 tempo osservato: Sereno Sereno 23 64 1010 vento: Nord N 3.7
22 Giugno 2024 05:20 tempo osservato: Sereno Sereno 22 73 1010 vento: Nord N 5.5
22 Giugno 2024 04:50 tempo osservato: Sereno Sereno 23 68 1010 vento: Nord N 3.7
22 Giugno 2024 04:20 tempo osservato: Sereno Sereno 22 78 1010 vento: Nord N 3.7
22 Giugno 2024 03:50 tempo osservato: Sereno Sereno 23 78 1010 vento: Nord N 5.5
22 Giugno 2024 03:20 tempo osservato: Sereno Sereno 23 78 1010 vento: Nord O/SO 7.4
22 Giugno 2024 02:50 tempo osservato: Sereno Sereno 24 69 1010 vento: Nord N 5.5
22 Giugno 2024 02:20 tempo osservato: Sereno Sereno 25 65 1011 vento: Nord O/NO 9.3
22 Giugno 2024 01:50 tempo osservato: Sereno Sereno 25 69 1011 vento: Nord O 7.4
22 Giugno 2024 01:20 tempo osservato: Sereno Sereno 25 69 1011 vento: Nord N 3.7
22 Giugno 2024 00:50 tempo osservato: Sereno Sereno 26 69 1011 vento: Nord N 1.8
22 Giugno 2024 00:20 tempo osservato: Sereno Sereno 26 69 1011 vento: Nord S/SO 7.4
21 Giugno 2024 23:50 tempo osservato: Sereno Sereno 27 69 1012 vento: Nord N 3.7
21 Giugno 2024 23:20 tempo osservato: Sereno Sereno 26 73 1012 vento: Nord N 5.5
21 Giugno 2024 22:50 tempo osservato: Sereno Sereno 27 69 1011 vento: Nord N 3.7
21 Giugno 2024 22:20 tempo osservato: Sereno Sereno 26 78 1012 vento: Nord N 1.8
21 Giugno 2024 21:50 tempo osservato: Sereno Sereno 26 78 1012 vento: Nord N 5.5
21 Giugno 2024 21:20 tempo osservato: Sereno Sereno 27 78 1012 vento: Nord N 5.5
21 Giugno 2024 20:50 tempo osservato: Sereno Sereno 27 74 1012 vento: Nord N 5.5
21 Giugno 2024 20:20 tempo osservato: Sereno Sereno 28 69 1012 vento: Nord E/NE 9.3
21 Giugno 2024 19:50 tempo osservato: Sereno Sereno 29 66 1012 vento: Nord NE 7.4
21 Giugno 2024 19:20 tempo osservato: Sereno Sereno 30 62 1012 vento: Nord NE 7.4
21 Giugno 2024 18:50 tempo osservato: Sereno Sereno 31 58 1012 vento: Nord E/NE 13
21 Giugno 2024 18:20 tempo osservato: Sereno Sereno 31 55 1012 vento: Nord E/NE 9.3
21 Giugno 2024 17:50 tempo osservato: Sereno Sereno 30 62 1012 vento: Nord E/NE 14.8
21 Giugno 2024 17:20 tempo osservato: Sereno Sereno 30 58 1012 vento: Nord E/NE 16.7
21 Giugno 2024 16:50 tempo osservato: Sereno Sereno 30 58 1013 vento: Nord E/NE 16.7
21 Giugno 2024 16:20 tempo osservato: Sereno Sereno 31 55 1013 vento: Nord E/NE 14.8
21 Giugno 2024 15:50 tempo osservato: Sereno Sereno 31 55 1014 vento: Nord NE 11.1
21 Giugno 2024 15:20 tempo osservato: Sereno Sereno 31 55 1014 vento: Nord NE 11.1
21 Giugno 2024 14:50 tempo osservato: Sereno Sereno 30 58 1015 vento: Nord NE 11.1
21 Giugno 2024 14:20 tempo osservato: Sereno Sereno 30 58 1015 vento: Nord N/NE 11.1
21 Giugno 2024 13:50 tempo osservato: Sereno Sereno 30 58 1015 vento: Nord N 11.1
21 Giugno 2024 13:20 tempo osservato: Sereno Sereno 30 51 1015 vento: Nord N 14.8
21 Giugno 2024 12:50 tempo osservato: Sereno Sereno 31 48 1015 vento: Nord N 14.8
21 Giugno 2024 12:20 tempo osservato: Sereno Sereno 32 40 1015 vento: Nord N 14.8
21 Giugno 2024 11:50 tempo osservato: Sereno Sereno 32 38 1015 vento: Nord N 14.8
21 Giugno 2024 11:20 tempo osservato: Sereno Sereno 31 37 1015 vento: Nord N 13
21 Giugno 2024 10:50 tempo osservato: Sereno Sereno 32 38 1015 vento: Nord N/NO 11.1
21 Giugno 2024 10:20 tempo osservato: Sereno Sereno 32 35 1015 vento: Nord N 9.3
21 Giugno 2024 09:50 tempo osservato: Sereno Sereno 31 37 1015 vento: Nord N/NO 9.3
21 Giugno 2024 09:20 tempo osservato: Sereno Sereno 31 37 1015 vento: Nord N 9.3
21 Giugno 2024 08:50 tempo osservato: Sereno Sereno 31 35 1015 vento: Nord NO 11.1